DW2213 Weather Reports


time (UTC)temp
C
wind
direction
speed
KPH
gust
KPH
rain 1hr
cm
rain 24hr
cm
rain mn
cm
humidity
%
barometer
mb
20260504174803 23 157 9.7 16.1 0.00 0.46 0.46 75 1007.5
20260504174305 23 140 9.7 12.9 0.00 0.46 0.46 74 1007.5
20260504173804 23 139 8.0 11.3 0.00 0.46 0.46 75 1007.5
20260504172305 23 140 11.3 19.3 0.00 0.46 0.46 75 1007.4
20260504170805 23 63 9.7 19.3 0.00 0.46 0.46 73 1007.5
20260504170304 23 118 9.7 19.3 0.00 0.46 0.46 73 1007.5
20260504150305 23 94 14.5 22.5 0.00 0.46 0.46 72 1008.1
20260504141305 23 130 9.7 22.5 0.00 0.46 0.46 71 1008.6
20260504140804 23 56 11.3 20.9 0.00 0.46 0.46 71 1008.7
20260504140304 23 85 9.7 19.3 0.00 0.46 0.46 72 1008.8
20260504130305 22 156 9.7 16.1 0.00 0.46 0.46 78 1009.7
20260504120305 20 103 6.4 11.3 0.03 0.46 0.46 86 1010.4
20260504110304 19 166 0.0 1.6 0.03 0.43 0.43 88 1011.1
20260504081804 20 156 1.6 3.2 0.00 0.08 0.00 78 1011.1
20260504081304 20 157 0.0 3.2 0.00 0.08 0.00 77 1011.2
20260504080805 20 156 0.0 1.6 0.00 0.08 0.00 78 1011.1
20260504080304 20 157 0.0 3.2 0.00 0.08 0.00 78 1011.2
20260504070304 18 156 1.6 8.0 0.00 0.08 0.00 87 1011.2
20260504050304 17 148 1.6 4.8 0.00 0.08 0.00 88 1010.7
20260504045804 17 148 0.0 0.0 0.00 0.08 0.00 88 1010.8
20260504045304 17 148 0.0 1.6 0.00 0.08 0.00 88 1010.8
20260504044805 17 148 1.6 3.2 0.00 0.08 0.00 88 1010.7
20260504044304 17 148 0.0 3.2 0.00 0.08 0.00 88 1010.8
20260504043804 17 148 0.0 0.0 0.00 0.08 0.00 88 1010.8
20260504043305 17 148 0.0 0.0 0.00 0.08 0.00 88 1010.8
20260504042804 17 148 0.0 0.0 0.00 0.08 0.00 88 1010.8
20260504041804 17 148 1.6 4.8 0.00 0.08 0.00 88 1011.0
20260504041304 17 148 0.0 0.0 0.00 0.08 0.00 88 1011.0
20260504040804 17 148 0.0 0.0 0.00 0.08 0.00 88 1011.0
20260504040304 17 148 0.0 0.0 0.00 0.08 0.00 88 1010.9
20260504035804 17 148 0.0 0.0 0.00 0.08 0.00 88 1011.1
20260504035305 17 148 0.0 0.0 0.00 0.08 0.00 88 1011.1
20260504034304 17 148 0.0 0.0 0.00 0.08 0.00 88 1011.3
20260504033804 17 148 0.0 0.0 0.00 0.08 0.00 88 1011.4
20260504033304 17 148 0.0 3.2 0.00 0.08 0.00 88 1011.5
20260504032804 17 148 0.0 3.2 0.00 0.08 0.00 88 1011.6
20260504032304 17 148 0.0 3.2 0.00 0.08 0.00 88 1011.6
20260504031804 17 148 0.0 1.6 0.00 0.08 0.00 88 1011.7
20260504031304 17 148 0.0 3.2 0.00 0.08 0.00 87 1011.7
20260504025804 17 148 0.0 0.0 0.00 0.08 0.00 87 1011.9
20260504025304 17 148 0.0 3.2 0.00 0.08 0.00 87 1011.9
20260504024304 17 148 0.0 3.2 0.00 0.08 0.00 86 1012.0
20260504023804 18 148 0.0 4.8 0.00 0.10 0.00 86 1011.9
20260504023304 18 148 3.2 8.0 0.00 0.10 0.00 86 1011.9
20260504022804 18 148 0.0 3.2 0.00 0.10 0.00 86 1011.8
20260504022305 18 148 1.6 3.2 0.00 0.13 0.00 86 1011.8
20260504021804 18 148 0.0 0.0 0.00 0.13 0.00 86 1011.8
20260504021304 18 148 0.0 0.0 0.00 0.13 0.00 86 1011.8
20260504020804 18 148 0.0 0.0 0.00 0.13 0.00 86 1011.8
20260504020304 18 148 0.0 0.0 0.00 0.13 0.00 86 1011.8
20260504015804 17 148 0.0 0.0 0.00 0.15 0.00 86 1011.8
20260504014804 18 148 1.6 3.2 0.00 0.15 0.00 86 1011.8
20260504014304 18 148 1.6 3.2 0.00 0.15 0.00 86 1011.8
20260504013304 18 148 0.0 3.2 0.00 0.15 0.00 86 1011.8
20260504012805 18 148 1.6 3.2 0.00 0.15 0.00 86 1011.7
20260504012304 18 148 1.6 3.2 0.00 0.15 0.00 85 1011.7
20260504011804 18 148 0.0 3.2 0.00 0.15 0.00 85 1011.7
20260504011304 18 148 0.0 3.2 0.00 0.15 0.00 84 1011.8
20260504010804 18 148 0.0 3.2 0.00 0.15 0.00 84 1011.7
20260504010304 18 148 1.6 3.2 0.00 0.15 0.00 84 1011.7
20260504005804 18 148 0.0 1.6 0.00 0.15 0.00 83 1011.6
20260504005305 18 148 1.6 3.2 0.00 0.15 0.00 82 1011.6
20260504004805 18 148 1.6 4.8 0.00 0.15 0.00 81 1011.6
20260504003804 18 147 1.6 4.8 0.00 0.15 0.00 81 1011.6
20260504003304 18 147 1.6 4.8 0.00 0.15 0.00 81 1011.7
20260504002804 18 147 1.6 4.8 0.00 0.15 0.00 80 1011.8
20260504002304 18 147 1.6 3.2 0.00 0.15 0.00 80 1011.9
20260504001804 18 147 1.6 1.6 0.00 0.15 0.00 80 1011.9
20260504001304 18 147 0.0 0.0 0.00 0.15 0.00 80 1012.0
20260504000803 18 147 0.0 0.0 0.00 0.15 0.00 80 1012.0
20260504000304 18 147 0.0 1.6 0.00 0.15 0.00 81 1012.1
20260503235804 18 147 3.2 4.8 0.00 0.15 0.00 81 1012.2
20260503235305 18 147 0.0 0.0 0.00 0.15 0.00 80 1012.3
20260503234804 18 147 0.0 4.8 0.00 0.15 0.00 80 1012.3
20260503233804 18 147 0.0 3.2 0.00 0.15 0.00 81 1012.4
20260503232804 18 148 0.0 0.0 0.00 0.15 0.00 81 1012.5
20260503232305 18 148 0.0 0.0 0.00 0.15 0.00 81 1012.5
20260503231805 18 148 0.0 0.0 0.00 0.15 0.00 81 1012.6
20260503231304 18 148 0.0 0.0 0.00 0.15 0.00 81 1012.7
20260503230804 18 148 0.0 0.0 0.00 0.15 0.00 80 1012.7
20260503225804 18 148 0.0 0.0 0.00 0.15 0.00 80 1012.7
20260503225305 18 148 0.0 0.0 0.00 0.15 0.00 80 1012.7
20260503224804 18 148 0.0 0.0 0.00 0.15 0.00 80 1012.6
20260503224304 18 148 0.0 0.0 0.00 0.15 0.00 80 1012.6
20260503223804 18 148 0.0 0.0 0.00 0.15 0.00 80 1012.6
20260503223304 18 148 0.0 0.0 0.00 0.15 0.00 80 1012.6
20260503222804 18 148 0.0 0.0 0.00 0.15 0.00 80 1012.6
20260503222304 18 148 0.0 8.0 0.00 0.15 0.00 80 1012.6
20260503221804 18 147 0.0 3.2 0.00 0.15 0.00 80 1012.6
20260503221304 18 147 0.0 4.8 0.00 0.15 0.00 80 1012.7
20260503220818 18 148 3.2 4.8 0.00 0.15 0.00 80 1012.6
20260503220305 18 147 1.6 4.8 0.00 0.15 0.00 80 1012.7
20260503215804 18 148 0.0 3.2 0.00 0.15 0.15 80 1012.4
20260503215304 18 148 3.2 8.0 0.00 0.15 0.15 80 1012.5
20260503214804 18 148 3.2 4.8 0.00 0.15 0.15 80 1012.6
20260503214304 18 147 0.0 3.2 0.00 0.15 0.15 80 1012.6
20260503213804 18 147 0.0 0.0 0.00 0.15 0.15 79 1012.7
20260503213304 18 147 0.0 0.0 0.00 0.15 0.15 79 1012.8
20260503212804 18 147 0.0 1.6 0.00 0.15 0.15 79 1013.1
20260503212305 18 147 1.6 3.2 0.00 0.15 0.15 79 1013.1
20260503211804 18 147 3.2 4.8 0.00 0.15 0.15 79 1013.0
20260503210804 18 147 3.2 8.0 0.00 0.15 0.15 78 1013.0
20260503210304 18 134 4.8 8.0 0.00 0.15 0.15 79 1013.0
20260503205804 18 146 3.2 4.8 0.00 0.15 0.15 78 1012.9
20260503204804 19 146 4.8 8.0 0.00 0.15 0.15 78 1012.7
20260503204304 19 146 4.8 8.0 0.00 0.15 0.15 78 1012.7
20260503203804 18 146 4.8 8.0 0.00 0.15 0.15 78 1012.6
20260503203304 18 146 3.2 8.0 0.00 0.15 0.15 78 1012.5
20260503202804 18 146 3.2 4.8 0.00 0.15 0.15 78 1012.5
20260503202304 18 146 1.6 4.8 0.00 0.15 0.15 78 1012.4
20260503201804 18 146 1.6 3.2 0.00 0.15 0.15 78 1012.3
20260503201304 18 146 1.6 4.8 0.00 0.15 0.15 78 1012.3
20260503200803 18 146 1.6 4.8 0.00 0.15 0.15 77 1012.2
20260503195804 18 147 1.6 4.8 0.00 0.15 0.15 77 1012.1
20260503195304 18 146 3.2 8.0 0.00 0.15 0.15 77 1012.0
20260503194803 18 146 0.0 0.0 0.00 0.15 0.15 77 1011.8
20260503193803 18 146 3.2 8.0 0.00 0.15 0.15 77 1011.6
20260503193304 18 146 3.2 4.8 0.00 0.15 0.15 77 1011.6
20260503192804 18 143 8.0 11.3 0.00 0.15 0.15 77 1011.5
20260503192305 18 143 6.4 9.7 0.00 0.15 0.15 77 1011.3
20260503191804 19 106 9.7 12.9 0.00 0.15 0.15 78 1011.2
20260503191304 19 104 8.0 12.9 0.00 0.15 0.15 79 1011.3
20260503190804 19 125 8.0 12.9 0.00 0.15 0.15 79 1011.4
20260503190303 19 125 6.4 11.3 0.00 0.15 0.15 78 1011.4
20260503185804 19 155 3.2 8.0 0.00 0.15 0.15 78 1011.7
20260503184804 19 155 6.4 9.7 0.00 0.15 0.15 78 1011.9
20260503184303 19 155 4.8 11.3 0.00 0.15 0.15 78 1011.7
20260503183803 19 143 8.0 11.3 0.00 0.15 0.15 78 1011.5
20260503183304 20 122 6.4 12.9 0.00 0.15 0.15 78 1011.5
20260503182804 20 112 8.0 12.9 0.00 0.15 0.15 78 1011.5
20260503182305 20 149 8.0 11.3 0.00 0.15 0.15 78 1011.4
20260503181804 20 149 8.0 11.3 0.00 0.15 0.15 77 1011.4
20260503181303 20 147 8.0 12.9 0.00 0.15 0.15 77 1011.5
20260503180804 20 119 8.0 11.3 0.00 0.15 0.15 77 1011.4
20260503175804 20 135 4.8 11.3 0.00 0.15 0.15 77 1011.2